Simultaneous Nadir Overpasses (SNOs) Predictions

Prediction of SNOs between NOAA-19 and TERRA Satellite Orbit:

Table of predicted SNOs for the next 14.0 days since TLE Epoch: 3/23/2019
Index Date (NOAA-19) Time (NOAA-19) Lat,Lon (NOAA-19) SZA (NOAA-19 ) Date (TERRA) Time (TERRA) Lat,Lon (TERRA) SZA (TERRA ) Distance(km) Time Diff (sec)
1 03/25/2019 04:44:45 78.16, 129.68 77.09 03/25/2019 04:45:08 78.19, 129.67 77.12 3.08 23
2 03/25/2019 05:35:44 -78.14, -62.94 102.94 03/25/2019 05:34:36 -78.15, -62.89 102.95 1.57 68
3 03/27/2019 10:18:12 -78.18,-133.69 103.76 03/27/2019 10:18:52 -78.20,-133.71 103.73 2.67 40
4 03/27/2019 11:09:13 78.14, 33.76 76.21 03/27/2019 11:08:19 78.15, 33.71 76.20 1.63 54
5 03/29/2019 15:51:41 78.20, -37.10 75.40 03/29/2019 15:52:34 78.19, -37.18 75.40 1.81 53
6 03/29/2019 16:42:39 -78.18, 130.26 104.63 03/29/2019 16:42:02 -78.16, 130.29 104.66 2.78 37
7 03/31/2019 21:25:07 -78.22, 59.50 105.44 03/31/2019 21:26:17 -78.23, 59.56 105.41 1.69 70
8 03/31/2019 22:16:09 78.18,-133.05 74.53 03/31/2019 22:15:44 78.17,-133.05 74.52 0.86 25
9 04/03/2019 02:58:48 78.60, 153.72 73.92 04/03/2019 02:59:52 78.53, 157.67 74.15 87.31 64
10 04/03/2019 03:49:34 -78.19, -36.34 106.31 04/03/2019 03:49:27 -78.20, -36.36 106.30 1.47 7
11 04/05/2019 09:23:05 78.19, 60.32 72.87 04/05/2019 09:23:09 78.19, 60.16 72.85 3.67 4




NCC Satellite Simultaneous Nadir Overpasses (SNOs) Prediction Service
